Challenge de la Forêt de la Semois et de la Houille

Le Trail Des Fées - Bertrix (7.30 km)

samedi 11 septembre 2021

Vous pouvez trouver Le classement original sur : http://ultratiming.be
CHALLENGE DE LA FORÊT DE LA SEMOIS ET DE LA HOUILLE
LE TRAIL DES FÉES - BERTRIX
DISTANCE 7.30 km
samedi 11 septembre 2021
 
Place Dos NOM Equipe Catégorie Pl/cat Temps Temps/km Vitesse
01:00:00                
1 7053 BRAET NINO BELGIQUE TRAIL CAH 1 0:45:21 06:13 9.66
2 7030 VAN TRICHT FINN - POG 1 0:47:54 06:34 9.14
3 7028 TOULEMONDE EMELINE ACBBS MIF 1 0:49:01 06:43 8.94
4 7051 PEERAER KAREL - V3H 1 0:49:40 06:48 8.82
5 7038 DELARGE AUDREY JOGGANS JUF 1 0:49:52 06:50 8.78
6 6034 FRANCARD MARIE JOGGANS SEF 1 0:49:57 06:51 8.77
7 7029 VAN TRICHT DAVY - SEH 1 0:51:33 07:04 8.50
8 7031 VAN TRICHT LENN - POG 2 0:51:34 07:04 8.49
9 6062 PETIAUX GAELLE JOGGANS SEF 2 0:52:14 07:09 8.39
10 7003 BARTHAUX ENZO - BEG 1 0:53:43 07:22 8.15
11 6067 ROUFOSSE DELPHINE - SEF 3 0:55:31 07:36 7.89
12 7039 PIERDOMENICO AURÉLIA - V1F 1 0:55:46 07:38 7.85
13 7007 COLLIGNON LORINE - SEF 4 0:56:30 07:44 7.75
14 7017 LIBOIS MARTIN - CAH 2 0:56:53 07:48 7.70
15 6050 KAISER SÉBASTIEN - SEH 2 0:57:27 07:52 7.62
16 7052 SOENARIO OONA - V2F 1 0:58:16 07:59 7.52
17 6069 KLUTZ SYLVIE - V1F 2 0:58:26 08:00 7.50
18 6070 WILMOTTE ANNE-PASCALE - V1F 3 0:58:26 08:00 7.50
19 7057 GAUSSIN MARYLINE - SEF 5 0:59:56 08:13 7.31
20 6033 DELAISSE AMÉLIE - SEF 6 1:00:16 08:15 7.27
21 7060 DEKEYSER ELISABETH - SEF 7 1:00:47 08:20 7.21
22 7058 DEKEYSER ROMANE - SEF 8 1:00:47 08:20 7.21
23 7061 LOUPPE FRANCK - SEH 3 1:00:47 08:20 7.21
24 7059 DEKEYSER HÉLÈNE - ESPF 1 1:00:47 08:20 7.21
25 6064 DESPAT JOELLE JCPMF PALISEUL V2F 2 1:00:57 08:21 7.19
26 7037 MEHSSATOU FATIMA - V1F 4 1:01:15 08:23 7.15
27 7036 AMRANI RAFIKA JOGGANS V1F 5 1:01:15 08:23 7.15
28 6065 3 MÉLISSA - SEF 9 1:01:25 08:25 7.13
29 7056 JAUMOTTE MARIE - SEF 10 1:01:39 08:27 7.10
30 7015 LA DELFA VANESSA - SEF 11 1:02:05 08:30 7.06
31 7026 SAUDMONT JULIE - SEF 12 1:02:36 08:35 7.00
32 7008 DEMOUSTIER CÉLINE - V1F 6 1:02:47 08:36 6.98
33 7062 BERLAGE LAURE - XXX   1:02:49 08:36 6.97
34 7042 HURLET GARANCE - SEF 13 1:03:05 08:38 6.94
35 7054 DELINCÉ STÉPHANIE - V1F 7 1:03:05 08:38 6.94
36 7040 GRANDJEAN SÉBASTIEN - V1H 1 1:03:11 08:39 6.93
37 7034 D'HOEDT FRANÇOIS - V2H 1 1:04:26 08:50 6.80
38 6071 GAUSSIN MARYLINE - SEF 14 1:05:48 09:01 6.66
39 7004 BOULANGER JULIE - SEF 15 1:05:48 09:01 6.66
40 7011 HANNOT LIONEL - V2H 2 1:06:37 09:08 6.57
41 12125 LEFÈVRE LOUISE - ESPF 2 1:10:20 09:38 6.23
42 7055 DIXHEURES MATHILDE - SEF 16 1:14:19 10:11 5.89
43 17084 CLAMOT CATHERINE - V2F 3 1:14:31 10:12 5.88
44 7032 VANBELLINGHEN NICOLE JOGGANS V2F 4 1:14:51 10:15 5.85
45 7018 MALET MARC - SEH 4 1:15:16 10:19 5.82
46 7041 GITZHOFFEN MAXIME - SEH 5 1:17:29 10:37 5.65
47 7014 KIRSCH JILL - SEF 17 1:17:34 10:38 5.65
48 7047 PLATTEAU CORENTIN - V1H 2 1:17:40 10:38 5.64
49 6045 BARTHAUX NORAH - MIF 2 1:17:48 10:39 5.63
50 7006 CHARNEUX YSALINE - BEF 1 1:17:48 10:39 5.63
51 7021 OMBELETS NATHALIE - V1F 8 1:17:52 10:40 5.63
52 7025 RENVEZ MIREILLE JCCS V2F 5 1:18:38 10:46 5.57
53 7020 MERCKX STÉPHANIE - SEF 18 1:18:44 10:47 5.56
54 7035 PEREZ CLAUDIA - V1F 9 1:22:32 11:18 5.31
                 
Nos dernières videos